Мадрид, метеограме

Мадрид: време по сату
Недеља, 05 Јула
Време Падавине Температура Осећа се Притисак Влажност Ветар
16:00 0 мм +34.4° +32.3° 709.000 мм.ж.с 15% 2 м/с, З
17:00 0 мм +34.3° +32.1° 709.000 мм.ж.с 15% 2 м/с, СЗ
18:00 0 мм +34.2° +32° 709.000 мм.ж.с 15% 2 м/с, СЗ
19:00 0 мм +32.3° +30.4° 709.000 мм.ж.с 18% 2 м/с, С
20:00 0 мм +30.4° +28.8° 709.000 мм.ж.с 21% 2 м/с, С
21:00 0 мм +28.6° +27.1° 709.000 мм.ж.с 24% 3 м/с, С
22:00 0 мм +27.5° +26.4° 709.000 мм.ж.с 28% 3 м/с, СИ
23:00 0 мм +26.4° +25.7° 709.000 мм.ж.с 33% 4 м/с, СИ
Понедељак, 06 Јула
Време Падавине Температура Осећа се Притисак Влажност Ветар
00:00 0 мм +25.4° +24.9° 709.000 мм.ж.с 38% 4 м/с, СИ
01:00 0 мм +24.7° +24.3° 709.000 мм.ж.с 40% 4 м/с, СИ
02:00 0 мм +24° +23.7° 709.000 мм.ж.с 42% 3 м/с, СИ
03:00 0 мм +23.4° +23.2° 709.000 мм.ж.с 45% 3 м/с, СИ
04:00 0 мм +23.4° +23.2° 709.000 мм.ж.с 45% 3 м/с, СИ
05:00 0 мм +23.4° +23.3° 709.000 мм.ж.с 46% 2 м/с, СИ
06:00 0 мм +23.4° +23.3° 709.000 мм.ж.с 46% 2 м/с, СИ
07:00 0 мм +25.2° +24.9° 709.000 мм.ж.с 41% 2 м/с, СИ
08:00 0 мм +26.9° +26.5° 710.000 мм.ж.с 37% 2 м/с, СИ
09:00 0 мм +28.7° +28.1° 710.000 мм.ж.с 33% 3 м/с, СИ
10:00 0 мм +30.1° +29.4° 710.000 мм.ж.с 30% 2 м/с, СИ
11:00 0 мм +31.6° +30.6° 709.000 мм.ж.с 27% 2 м/с, СИ
12:00 0 мм +33° +31.8° 709.000 мм.ж.с 23% 2 м/с, С
13:00 0 мм +33.7° +32.4° 709.000 мм.ж.с 22% 2 м/с, С
14:00 0 мм +34.5° +33.1° 709.000 мм.ж.с 21% 2 м/с, С
15:00 0 мм +35.2° +33.7° 708.000 мм.ж.с 20% 2 м/с, СЗ
16:00 0 мм +34.9° +33.5° 708.000 мм.ж.с 21% 3 м/с, С
17:00 0 мм +34.6° +33.2° 708.000 мм.ж.с 21% 3 м/с, С
18:00 0 мм +34.3° +33.1° 708.000 мм.ж.с 22% 4 м/с, С
19:00 0 мм +31.8° +31° 708.000 мм.ж.с 28% 5 м/с, С
20:00 0 мм +29.3° +29° 708.000 мм.ж.с 35% 5 м/с, СИ
21:00 0 мм +26.8° +26.7° 709.000 мм.ж.с 41% 6 м/с, СИ
22:00 0 мм +25.8° +25.6° 709.000 мм.ж.с 41% 6 м/с, СИ
23:00 0 мм +24.8° +24.4° 708.000 мм.ж.с 40% 5 м/с, СИ
Уторак, 07 Јула
Време Падавине Температура Осећа се Притисак Влажност Ветар
00:00 0 мм +23.7° +23.3° 708.000 мм.ж.с 40% 4 м/с, СИ
01:00 0 мм +23.2° +22.5° 708.000 мм.ж.с 37% 4 м/с, СИ
02:00 0 мм +22.6° +21.7° 708.000 мм.ж.с 34% 4 м/с, СИ
03:00 0 мм +22.1° +20.8° 708.000 мм.ж.с 30% 3 м/с, СИ
04:00 0 мм +22.1° +20.9° 708.000 мм.ж.с 30% 3 м/с, СИ
05:00 0 мм +22.2° +21° 707.000 мм.ж.с 30% 3 м/с, СИ
06:00 0 мм +22.3° +21.1° 707.000 мм.ж.с 30% 3 м/с, СИ
07:00 0 мм +24.3° +23° 707.000 мм.ж.с 28% 3 м/с, СИ
08:00 0 мм +26.3° +25° 708.000 мм.ж.с 26% 2 м/с, СИ
09:00 0 мм +28.4° +27° 708.000 мм.ж.с 25% 2 м/с, И
10:00 0 мм +30.1° +28.7° 708.000 мм.ж.с 23% 2 м/с, И
11:00 0 мм +31.8° +30.4° 707.000 мм.ж.с 22% 2 м/с, Ј
12:00 0 мм +33.6° +32.1° 707.000 мм.ж.с 21% 2 м/с, ЈЗ
13:00 0 мм +34.6° +32.8° 707.000 мм.ж.с 18% 2 м/с, ЈЗ
14:00 0 мм +35.6° +33.6° 707.000 мм.ж.с 16% 3 м/с, ЈЗ
15:00 0 мм +36.5° +34.2° 707.000 мм.ж.с 13% 3 м/с, ЈЗ

Такође

Meteograms hourly weather Мапе времена Преглед времена
Meteograms hourly weather Мапе времена Преглед времена
 
Време у Србији:
О проjекту
© meteoprog.rs 2003-2020.
Meteoprog.ua - погода в Украине 0.0535
sitemap